Volver al catálogo

STARLINK-3828

ActivoComunicacionesVLEO
NORAD 52469·PAYLOAD·🇺🇸 United States

Lanzado May 6, 2022 desde Cape Canaveral Space Force Station

Loading…

Próximos Pases (próximas 24 horas)

TLE

ActualizadoSource: CelesTrak SupGP

Época: Sep 14, 2026, 20:51 UTC

1 52469C 22049U   26257.86923611  .00015567  00000+0  47246-3 0  2577
2 52469  53.1567 280.1237 0001255  84.5226  80.8424 15.33535298    19

Sigue STARLINK-3828 en tiempo real con AllMySat

Download on the App Store